EW5040 Weather Reports


Display with metric or nautical units.
time (UTC)temp
F
wind
direction
speed
MPH
gust
MPH
rain 1hr
in
rain 24hr
in
rain mn
in
humidity
%
barometer
mb
20260901134543 77 204 1.0 7.0 0.00 0.21 0.00 90 1013.0
20260901133042 77 239 2.0 5.0 0.00 0.21 0.00 89 1013.1
20260901131539 76 246 1.0 4.0 0.00 0.21 0.00 91 1013.0
20260901130036 76 259 1.0 5.0 0.00 0.21 0.00 93 1013.1
20260901124534 75 273 1.0 5.0 0.00 0.21 0.00 93 1013.2
20260901123034 74 190 1.0 4.0 0.00 0.21 0.00 94 1013.2
20260901121538 74 218 0.0 3.0 0.00 0.21 0.00 94 1013.0
20260901120023 73 197 1.0 4.0 0.00 0.21 0.00 94 1012.8
20260901114521 73 248 0.0 3.0 0.00 0.21 0.00 94 1012.8
20260901113020 73 217 1.0 4.0 0.00 0.21 0.00 94 1012.8
20260901111513 73 273 0.0 4.0 0.00 0.21 0.00 94 1012.6
20260901110008 73 211 0.0 4.0 0.00 0.21 0.00 94 1012.5
20260901104505 73 214 3.0 7.0 0.00 0.22 0.00 95 1012.4
20260901103001 72 194 1.0 6.0 0.00 0.22 0.00 95 1012.4
20260901101558 71 248 1.0 6.0 0.00 0.22 0.00 96 1012.3
20260901100105 71 221 1.0 4.0 0.00 0.22 0.00 96 1012.1
20260901094559 71 247 3.0 6.0 0.00 0.22 0.00 97 1012.0
20260901093105 71 253 1.0 4.0 0.00 0.22 0.00 97 1012.1
20260901091604 71 204 0.0 3.0 0.00 0.22 0.00 97 1012.0
20260901090053 71 204 0.0 4.0 0.00 0.22 0.00 97 1011.8
20260901084555 71 178 0.0 1.0 0.00 0.22 0.00 97 1011.9
20260901083057 71 178 0.0 3.0 0.00 0.22 0.00 97 1011.8
20260901081551 71 180 0.0 3.0 0.00 0.22 0.00 97 1011.9
20260901080049 70 213 0.0 4.0 0.00 0.22 0.00 97 1012.1
20260901074549 70 213 0.0 3.0 0.00 0.25 0.00 98 1012.1
20260901073049 70 178 0.0 2.0 0.00 0.25 0.00 98 1012.3
20260901071545 70 200 1.0 5.0 0.00 0.25 0.00 98 1012.5
20260901070050 70 171 1.0 4.0 0.00 0.25 0.00 98 1012.6
20260901064545 70 148 0.0 3.0 0.00 0.28 0.00 98 1012.7
20260901063040 70 138 0.0 4.0 0.00 0.28 0.00 98 1013.0
20260901061539 70 173 0.0 4.0 0.00 0.28 0.00 98 1013.0
20260901060035 70 212 0.0 3.0 0.00 0.28 0.00 98 1013.5
20260901054534 70 212 0.0 3.0 0.00 0.31 0.00 98 1013.6
20260901053033 70 207 0.0 3.0 0.00 0.31 0.00 98 1013.8
20260901051531 70 207 0.0 2.0 0.00 0.31 0.00 97 1013.8
20260901050029 69 207 0.0 3.0 0.00 0.31 0.00 97 1013.8
20260901044528 69 207 0.0 1.0 0.00 0.31 0.00 97 1014.0
20260901043026 69 207 0.0 0.0 0.00 0.31 0.00 97 1014.1
20260901041526 69 207 0.0 1.0 0.02 0.31 0.00 97 1014.3
20260901040031 69 207 0.0 1.0 0.02 0.31 0.00 97 1014.5
20260901034522 70 207 0.0 2.0 0.02 0.37 0.31 97 1014.6
20260901033022 70 207 0.0 1.0 0.01 0.36 0.30 97 1014.6
20260901031521 70 207 0.0 1.0 0.00 0.35 0.28 96 1014.6
20260901030019 70 207 0.0 1.0 0.00 0.35 0.28 96 1014.7
20260901024526 70 207 0.0 1.0 0.00 0.45 0.28 96 1014.9
20260901023019 70 207 0.0 1.0 0.00 0.45 0.28 96 1014.9
20260901021517 70 207 0.0 1.0 0.00 0.45 0.28 96 1015.3
20260901020015 70 207 0.0 1.0 0.00 0.45 0.28 96 1015.1
20260901014515 70 207 0.0 0.0 0.00 0.54 0.28 95 1015.2
20260901013018 70 207 0.0 0.0 0.00 0.54 0.28 96 1015.3
20260901011514 71 207 0.0 1.0 0.00 0.54 0.28 95 1015.3
20260901010014 71 207 0.0 2.0 0.00 0.54 0.28 95 1015.4
20260901004529 71 207 0.0 1.0 0.00 0.56 0.28 95 1015.3
20260901003016 71 207 0.0 3.0 0.00 0.56 0.28 95 1015.2
20260901001611 71 207 0.0 3.0 0.00 0.56 0.28 95 1015.1
20260901000015 72 207 0.0 3.0 0.00 0.56 0.28 95 1015.2
20260831234512 72 214 1.0 4.0 0.00 0.57 0.28 95 1015.0
20260831233010 72 236 1.0 4.0 0.00 0.57 0.28 95 1015.1
20260831231509 72 219 1.0 4.0 0.00 0.57 0.28 95 1015.1
20260831230010 72 216 2.0 8.0 0.00 0.57 0.28 95 1015.2
20260831224508 73 229 1.0 3.0 0.00 0.61 0.28 95 1015.3
20260831223008 73 218 0.0 5.0 0.00 0.61 0.28 95 1015.2
20260831221511 73 217 1.0 3.0 0.00 0.61 0.28 95 1015.3
20260831220005 73 223 0.0 3.0 0.00 0.61 0.28 95 1015.3
20260831214516 73 203 1.0 5.0 0.00 0.62 0.28 95 1015.6
20260831213005 73 267 1.0 11.0 0.00 0.62 0.28 95 1015.5
20260831211505 73 197 2.0 10.0 0.00 0.62 0.28 95 1015.5
20260831210002 73 252 2.0 7.0 0.00 0.62 0.28 95 1015.5
20260831204502 73 215 0.0 6.0 0.00 0.62 0.28 96 1015.3
20260831203001 73 236 1.0 6.0 0.00 0.62 0.28 96 1015.2
20260831201503 73 223 1.0 7.0 0.01 0.62 0.28 96 1015.2
20260831200058 73 179 1.0 5.0 0.04 0.62 0.28 96 1015.4
20260831194554 72 166 1.0 4.0 0.04 0.62 0.28 96 1015.6
20260831193054 72 234 0.0 4.0 0.04 0.62 0.28 96 1015.9
20260831191551 72 167 0.0 1.0 0.03 0.61 0.28 95 1016.1
20260831190111 72 167 0.0 2.0 0.01 0.57 0.25 95 1016.0
20260831184549 72 167 0.0 5.0 0.06 0.57 0.25 95 1016.2
20260831183053 72 219 0.0 2.0 0.06 0.57 0.25 95 1016.4
20260831181540 72 219 0.0 1.0 0.06 0.57 0.25 94 1016.3
20260831180037 72 219 0.0 2.0 0.05 0.56 0.24 93 1016.5
20260831174533 72 220 1.0 3.0 0.00 0.52 0.19 92 1016.7
20260831173031 72 203 2.0 5.0 0.00 0.52 0.19 91 1016.6
20260831171531 72 232 1.0 6.0 0.00 0.52 0.19 93 1016.6
20260831170027 71 163 0.0 5.0 0.00 0.52 0.19 94 1016.6
20260831164526 71 256 2.0 7.0 0.00 0.52 0.19 96 1016.8
20260831163037 70 186 3.0 8.0 0.00 0.52 0.19 98 1016.8
20260831161518 69 161 0.0 5.0 0.00 0.52 0.19 98 1016.8
20260831160021 68 161 1.0 5.0 0.01 0.52 0.19 97 1017.0
20260831154512 68 161 0.0 6.0 0.02 0.53 0.19 97 1017.3
20260831153010 68 161 0.0 5.0 0.04 0.53 0.19 98 1017.2
20260831151520 68 161 2.0 5.0 0.06 0.53 0.19 98 1017.3
20260831150009 68 160 2.0 5.0 0.06 0.52 0.18 98 1017.1
20260831144509 67 160 1.0 5.0 0.06 0.52 0.17 98 1017.0
20260831143002 67 161 0.0 2.0 0.04 0.50 0.15 98 1017.0
20260831141501 67 161 0.0 1.0 0.03 0.48 0.13 98 1017.1
20260831140101 67 161 0.0 3.0 0.02 0.47 0.12 98 1017.1